Language: 


Des rapports , des résumés tant et plus, au choix de chacun....


Données statistiques de la station
Quotidien Rapport Juin 20, 2017 Unités:  Anglais    Métrique   les deux
« Précédent Jour
Suivant Jour »
Quotidien Hebdomadaire Mensuel Annuel Actuel
  Haut: Bas: Moyen:
Température: 94.6 °F 32 °F 77.7 °F
Pt de rosée: 69.8 °F 55.4 °F 62.4 °F
Humidité: 90 % 0 % 61 %
Vitesse du vent: 12.5 mph 0 mph 2.9 mph
Rafales: 457.8 mph - -
Vent:- - SSE
Pression: 30.1 in 0 in -
Précipitation: 0 in    
Historical Graphs
 
 
Données statistiques pour Juin 20, 2017
Heure Température Point de rosée Pression Vent Vitesse du vent Refales Humidité Pluie (taux horaire)
00:01 69.1 °F 59 °F 30 in Calm   2.5 mph 71 % 0 in
00:06 68.7 °F 59 °F 30 in Calm   3.4 mph 71 % 0 in
00:11 68.4 °F 59 °F 30 in Calm   4.3 mph 72 % 0 in
00:16 68.2 °F 59 °F 30 in North 2.5 mph 4.3 mph 72 % 0 in
00:21 68 °F 59 °F 30 in Calm   4.7 mph 72 % 0 in
00:26 68 °F 59 °F 30 in North 3.8 mph 4.7 mph 73 % 0 in
00:31 67.8 °F 59 °F 30 in North 1.3 mph 4.7 mph 74 % 0 in
00:36 67.6 °F 59 °F 30 in NE 3.1 mph 4.7 mph 74 % 0 in
00:41 67.6 °F 59 °F 30 in North 4.3 mph 4.3 mph 75 % 0 in
00:46 67.6 °F 59 °F 30 in North 3.6 mph 4.7 mph 75 % 0 in
00:51 67.6 °F 59 °F 30 in North 3.8 mph 4.7 mph 75 % 0 in
00:56 67.6 °F 59 °F 30 in North 3.8 mph 5.6 mph 76 % 0 in
01:01 67.8 °F 60.8 °F 30 in North 2.5 mph 5.8 mph 77 % 0 in
01:07 67.6 °F 60.8 °F 30 in Calm   5.8 mph 77 % 0 in
01:12 67.6 °F 60.8 °F 30 in NNW 3.4 mph 5.6 mph 77 % 0 in
01:15 67.6 °F 60.8 °F 30 in Calm   5.4 mph 77 % 0 in
01:20 67.6 °F 60.8 °F 30 in NNE 2.9 mph 5.4 mph 78 % 0 in
01:25 67.5 °F 60.8 °F 30 in NNE 2 mph 5.4 mph 78 % 0 in
01:30 67.5 °F 60.8 °F 30 in Calm   5.4 mph 78 % 0 in
01:35 67.3 °F 60.8 °F 30 in Calm   3.6 mph 78 % 0 in
01:40 66.9 °F 59 °F 30 in Calm   3.6 mph 78 % 0 in
01:45 66.7 °F 59 °F 30 in Calm   4 mph 78 % 0 in
01:50 66.6 °F 60.8 °F 30 in Calm   4 mph 79 % 0 in
01:55 66.4 °F 60.8 °F 30 in Calm   4.3 mph 80 % 0 in
02:00 66.4 °F 60.8 °F 30 in ENE 2.2 mph 4.3 mph 80 % 0 in
02:05 66.4 °F 60.8 °F 30 in Calm   4 mph 80 % 0 in
02:10 66.2 °F 60.8 °F 30 in Calm   4 mph 80 % 0 in
02:15 66 °F 60.8 °F 30 in Calm   2.5 mph 80 % 0 in
02:20 65.8 °F 59 °F 30 in Calm   3.1 mph 81 % 0 in
02:26 65.8 °F 60.8 °F 30 in Calm   3.1 mph 82 % 0 in
02:31 65.7 °F 60.8 °F 30 in Calm   1.6 mph 82 % 0 in
02:36 65.7 °F 60.8 °F 30 in Calm   1.6 mph 82 % 0 in
02:41 65.7 °F 60.8 °F 30 in Calm   1.1 mph 82 % 0 in
02:46 65.5 °F 60.8 °F 30 in Calm   2.5 mph 82 % 0 in
02:51 65.3 °F 60.8 °F 30 in Calm   2.5 mph 82 % 0 in
02:56 65.1 °F 59 °F 30 in Calm     82 % 0 in
03:01 64.9 °F 59 °F 30 in Calm     82 % 0 in
03:06 64.8 °F 59 °F 30 in Calm   1.3 mph 82 % 0 in
03:11 64.8 °F 59 °F 30 in Calm   1.3 mph 82 % 0 in
03:16 64.8 °F 59 °F 30 in Calm     83 % 0 in
03:21 64.8 °F 59 °F 30 in Calm   1.3 mph 83 % 0 in
03:26 64.6 °F 59 °F 30 in Calm   2.5 mph 83 % 0 in
03:31 64.6 °F 59 °F 30 in Calm   2.5 mph 83 % 0 in
03:36 64.4 °F 59 °F 30 in Calm   1.1 mph 83 % 0 in
03:41 64.2 °F 59 °F 30 in Calm   1.6 mph 83 % 0 in
03:46 64 °F 59 °F 30 in Calm   1.6 mph 84 % 0 in
03:51 64 °F 59 °F 30 in Calm     84 % 0 in
03:56 63.9 °F 59 °F 30 in Calm     84 % 0 in
04:01 63.9 °F 59 °F 30 in NNE 2.2 mph 2.2 mph 85 % 0 in
04:06 63.9 °F 59 °F 30 in Calm   2.2 mph 86 % 0 in
04:11 63.9 °F 59 °F 30 in Calm   1.1 mph 86 % 0 in
04:16 63.9 °F 59 °F 30 in Calm     86 % 0 in
04:21 63.9 °F 59 °F 30 in North 1.1 mph 1.1 mph 86 % 0 in
04:26 63.7 °F 59 °F 30 in NNE 2.7 mph 2.7 mph 86 % 0 in
04:31 63.9 °F 60.8 °F 30 in Calm   4 mph 87 % 0 in
04:36 63.9 °F 60.8 °F 30 in North 3.4 mph 4 mph 87 % 0 in
04:41 64 °F 60.8 °F 30 in Calm   3.6 mph 87 % 0 in
04:46 64 °F 60.8 °F 30 in Calm   3.6 mph 87 % 0 in
04:51 64.2 °F 60.8 °F 30 in Calm   3.4 mph 87 % 0 in
04:56 63.9 °F 59 °F 30 in Calm     86 % 0 in
05:01 63.3 °F 59 °F 30 in Calm     85 % 0 in
05:06 62.8 °F 59 °F 30 in Calm   0.9 mph 85 % 0 in
05:11 62.6 °F 59 °F 30 in Calm   0.9 mph 86 % 0 in
05:17 62.4 °F 59 °F 30 in Calm     88 % 0 in
05:22 62.4 °F 59 °F 30 in Calm     88 % 0 in
05:27 62.6 °F 59 °F 30 in Calm   2.5 mph 88 % 0 in
05:32 62.8 °F 59 °F 30 in Calm   2.5 mph 89 % 0 in
05:37 62.8 °F 59 °F 30 in Calm   2.5 mph 89 % 0 in
05:42 63 °F 60.8 °F 30 in Calm   3.6 mph 90 % 0 in
05:47 63.1 °F 60.8 °F 30 in Calm   3.6 mph 90 % 0 in
05:52 63.1 °F 60.8 °F 30 in Calm   2 mph 90 % 0 in
05:57 63.3 °F 60.8 °F 30 in Calm   2.5 mph 90 % 0 in
06:02 63.3 °F 60.8 °F 30 in Calm   2.5 mph 90 % 0 in
06:07 63.1 °F 60.8 °F 30 in Calm     89 % 0 in
06:12 63.1 °F 60.8 °F 30 in Calm     89 % 0 in
06:17 63.1 °F 60.8 °F 30 in Calm     89 % 0 in
06:22 63.1 °F 60.8 °F 30 in Calm     89 % 0 in
06:27 63.1 °F 60.8 °F 30 in Calm     89 % 0 in
06:32 63.5 °F 60.8 °F 30 in Calm     89 % 0 in
06:37 63.9 °F 60.8 °F 30 in Calm     89 % 0 in
06:42 64.2 °F 60.8 °F 30 in Calm     89 % 0 in
06:47 64.4 °F 60.8 °F 30 in Calm     89 % 0 in
06:52 64.8 °F 60.8 °F 30 in Calm     88 % 0 in
06:57 65.1 °F 62.6 °F 30 in Calm     89 % 0 in
07:02 65.7 °F 62.6 °F 30 in Calm     89 % 0 in
07:08 66.4 °F 62.6 °F 30 in Calm     88 % 0 in
07:13 66.9 °F 62.6 °F 30 in Calm     88 % 0 in
07:18 67.5 °F 64.4 °F 30 in Calm     88 % 0 in
07:23 67.8 °F 64.4 °F 30 in Calm     87 % 0 in
07:28 68.4 °F 64.4 °F 30 in Calm     87 % 0 in
07:33 68.9 °F 64.4 °F 30 in Calm     86 % 0 in
07:38 69.3 °F 64.4 °F 30 in Calm     86 % 0 in
07:43 70 °F 66.2 °F 30 in Calm     85 % 0 in
07:48 70.7 °F 66.2 °F 30 in Calm     84 % 0 in
07:53 71.2 °F 66.2 °F 30 in Calm     84 % 0 in
07:58 72.3 °F 68 °F 30 in Calm     84 % 0 in
08:03 73.4 °F 68 °F 30 in Calm   3.1 mph 81 % 0 in
08:08 73.6 °F 68 °F 30 in NE 0.9 mph 3.1 mph 80 % 0 in
08:13 73.8 °F 68 °F 30 in Calm   4.9 mph 79 % 0 in
08:18 73.6 °F 66.2 °F 30 in NE 3.1 mph 4.9 mph 79 % 0 in
08:23 74.1 °F 66.2 °F 30 in Calm   4.3 mph 78 % 0 in
08:28 74.5 °F 68 °F 30 in ENE 2.7 mph 4.3 mph 78 % 0 in
08:33 74.7 °F 68 °F 30 in NE 4.3 mph 4.3 mph 77 % 0 in
08:38 75 °F 68 °F 30 in Calm   4.3 mph 77 % 0 in
08:43 75.6 °F 68 °F 30 in Calm   3.4 mph 76 % 0 in
08:48 76.3 °F 68 °F 30 in Calm   1.3 mph 76 % 0 in
08:53 77.4 °F 69.8 °F 30 in Calm     75 % 0 in
08:58 78.1 °F 69.8 °F 30 in Calm   1.1 mph 73 % 0 in
09:03 78.6 °F 69.8 °F 30 in Calm   2.9 mph 72 % 0 in
09:09 79 °F 68 °F 30 in North 4 mph 4.9 mph 70 % 0 in
09:14 79.5 °F 68 °F 30 in Calm   4.9 mph 69 % 0 in
09:19 80.4 °F 69.8 °F 30 in North 0.9 mph 2.7 mph 69 % 0 in
09:24 81 °F 69.8 °F 30 in Calm   2.7 mph 67 % 0 in
09:29 81.7 °F 69.8 °F 30 in NE 2.5 mph 4.3 mph 67 % 0 in
09:34 81.9 °F 69.8 °F 30 in Calm   4.3 mph 66 % 0 in
09:39 82.4 °F 69.8 °F 30 in NE 1.1 mph 3.8 mph 66 % 0 in
09:44 82.8 °F 69.8 °F 30 in Calm   4.7 mph 63 % 0 in
09:49 82.6 °F 69.8 °F 30.1 in Calm   4.7 mph 63 % 0 in
09:54 83.1 °F 69.8 °F 30.1 in Calm   6 mph 63 % 0 in
09:59 83.3 °F 69.8 °F 30.1 in NE 1.6 mph 6 mph 63 % 0 in
10:04 83.5 °F 69.8 °F 30 in Calm   6.5 mph 62 % 0 in
10:09 84.2 °F 69.8 °F 30 in NNE 3.8 mph 6.5 mph 61 % 0 in
10:15 84.4 °F 69.8 °F 30 in NW 4.3 mph 5.6 mph 60 % 0 in
10:20 84.2 °F 69.8 °F 30 in Calm   5.6 mph 59 % 0 in
10:25 84.6 °F 69.8 °F 30 in Calm   5.6 mph 59 % 0 in
10:30 84.9 °F 69.8 °F 30 in Calm   5.6 mph 59 % 0 in
10:35 85.6 °F 69.8 °F 30 in North 2.9 mph 6.5 mph 58 % 0 in
10:40 85.6 °F 68 °F 30 in Calm   7.4 mph 57 % 0 in
10:45 85.8 °F 68 °F 30 in NNE 2.2 mph 8.1 mph 56 % 0 in
10:50 86 °F 68 °F 30 in NE 8.1 mph 8.1 mph 55 % 0 in
10:55 86.2 °F 68 °F 30 in North 3.6 mph 8.1 mph 55 % 0 in
11:00 86.2 °F 68 °F 30 in East 4.9 mph 8.1 mph 55 % 0 in
11:05 86 °F 68 °F 30 in NE 6.3 mph 8.1 mph 53 % 0 in
11:10 86.2 °F 68 °F 30 in North 3.4 mph 8.5 mph 53 % 0 in
11:15 86.7 °F 66.2 °F 30 in NE 4 mph 8.5 mph 51 % 0 in
11:20 86.9 °F 66.2 °F 30 in ENE 4 mph 6.3 mph 50 % 0 in
11:25 87.6 °F 68 °F 30 in East 5.8 mph 6 mph 50 % 0 in
11:30 87.6 °F 66.2 °F 30 in NE 7.8 mph 7.8 mph 48 % 0 in
11:35 87.8 °F 66.2 °F 30 in Calm   7.8 mph 47 % 0 in
11:41 88.7 °F 66.2 °F 30 in NE 6.5 mph 8.1 mph 46 % 0 in
11:46 87.6 °F 64.4 °F 30 in North 5.8 mph 8.1 mph 45 % 0 in
11:51 87.1 °F 64.4 °F 30 in NE 4 mph 7.4 mph 45 % 0 in
11:56 87.6 °F 64.4 °F 30 in NE 6.5 mph 8.1 mph 45 % 0 in
12:09 32 °F 64.4 °F 0 in ENE 8.1 mph 8.1 mph 0 % 0 in
12:14 88.3 °F 62.6 °F 30 in NE 4.9 mph 8.7 mph 43 % 0 in
12:19 88.7 °F 64.4 °F 30 in NE 3.6 mph 8.7 mph 44 % 0 in
12:24 89.6 °F 64.4 °F 30 in NNE 2.7 mph 8.5 mph 42 % 0 in
12:29 90 °F 64.4 °F 30 in SE 1.1 mph 6.5 mph 42 % 0 in
12:34 89.2 °F 62.6 °F 30 in NE 6.5 mph 6.5 mph 42 % 0 in
12:39 89.6 °F 64.4 °F 30 in NE 6.3 mph 8.5 mph 42 % 0 in
12:44 89.8 °F 62.6 °F 30 in East 2 mph 8.5 mph 41 % 0 in
12:49 90.1 °F 62.6 °F 30 in North 2.5 mph 7.6 mph 40 % 0 in
12:54 90.5 °F 64.4 °F 30 in Calm   7.6 mph 41 % 0 in
14:05 32 °F 64.4 °F 0 in Calm     0 % 0 in
14:10 92.8 °F 62.6 °F 30 in North 3.1 mph 7.4 mph 36 % 0 in
14:15 93.2 °F 60.8 °F 30 in North 5.8 mph 7.8 mph 34 % 0 in
14:20 93.2 °F 60.8 °F 30 in Calm   8.1 mph 33 % 0 in
14:25 93.2 °F 60.8 °F 30 in North 7.2 mph 8.1 mph 33 % 0 in
14:29 93.4 °F 60.8 °F 30 in NE 3.6 mph 8.7 mph 33 % 0 in
14:34 93.6 °F 60.8 °F 30 in NW 2.5 mph 8.7 mph 34 % 0 in
14:39 93.9 °F 60.8 °F 30 in ESE 1.3 mph 6.5 mph 33 % 0 in
14:44 94.6 °F 60.8 °F 30 in NNW 2.5 mph 6 mph 32 % 0 in
14:45 94.6 °F 60.8 °F 30 in North 3.4 mph 6 mph 32 % 0 in
14:50 94.1 °F 59 °F 30 in East 2.9 mph 8.5 mph 31 % 0 in
14:55 93.7 °F 59 °F 30 in North 4 mph 8.5 mph 31 % 0 in
15:00 93.7 °F 57.2 °F 30 in ENE 4 mph 8.7 mph 30 % 0 in
15:05 94.1 °F 59 °F 30 in East 2.7 mph 8.7 mph 31 % 0 in
15:10 94.5 °F 59 °F 30 in NE 2.9 mph 6.9 mph 31 % 0 in
15:15 94.5 °F 59 °F 30 in NW 4.7 mph 8.1 mph 31 % 0 in
15:20 93.4 °F 57.2 °F 30 in WNW 1.1 mph 8.1 mph 30 % 0 in
15:25 92.8 °F 57.2 °F 30 in NNW 1.1 mph 8.1 mph 30 % 0 in
15:30 93.9 °F 57.2 °F 30 in East 1.1 mph 4.7 mph 30 % 0 in
15:35 94.6 °F 59 °F 30 in NE 5.4 mph 6.5 mph 30 % 0 in
15:40 94.1 °F 59 °F 30 in ENE 1.1 mph 7.2 mph 30 % 0 in
15:45 94.3 °F 59 °F 30 in WNW 2.5 mph 7.2 mph 30 % 0 in
15:50 92.1 °F 55.4 °F 30 in Calm   6.3 mph 30 % 0 in
15:55 91.9 °F 57.2 °F 30 in North 5.6 mph 7.4 mph 31 % 0 in
16:00 94.1 °F 59 °F 30 in NW 1.6 mph 7.4 mph 30 % 0 in
16:05 93.7 °F 57.2 °F 30 in NE 1.6 mph 6.5 mph 30 % 0 in
16:10 94.1 °F 59 °F 30 in Calm   6.5 mph 30 % 0 in
16:15 94.6 °F 59 °F 30 in ENE 7.8 mph 7.8 mph 31 % 0 in
16:20 92.5 °F 57.2 °F 30 in NE 4.3 mph 8.1 mph 31 % 0 in
16:25 91 °F 57.2 °F 30 in North 2.9 mph 8.1 mph 32 % 0 in
16:30 90.3 °F 57.2 °F 30 in North 6.5 mph 8.7 mph 32 % 0 in
16:32 90.1 °F 57.2 °F 30 in Calm   8.7 mph 33 % 0 in
16:37 90.3 °F 59 °F 30 in Calm   8.7 mph 34 % 0 in
16:42 91.6 °F 59 °F 30 in Calm   4.7 mph 33 % 0 in
16:47 91.8 °F 60.8 °F 30 in Calm   4 mph 35 % 0 in
16:52 92.1 °F 59 °F 30 in NE 2.5 mph 6.5 mph 34 % 0 in
16:57 92.7 °F 59 °F 30 in ENE 4.9 mph 6.5 mph 33 % 0 in
17:02 93 °F 59 °F 30 in ENE 3.8 mph 6.3 mph 33 % 0 in
17:07 93.4 °F 60.8 °F 30 in NNW 4.3 mph 6.3 mph 33 % 0 in
17:12 93 °F 59 °F 30 in NE 3.8 mph 7.6 mph 33 % 0 in
17:17 92.8 °F 59 °F 30 in North 5.8 mph 7.6 mph 32 % 0 in
17:22 92.8 °F 59 °F 30 in Calm   7.2 mph 32 % 0 in
17:27 94.1 °F 59 °F 30 in WNW 0.9 mph 7.2 mph 31 % 0 in
17:32 94.5 °F 59 °F 30 in NNE 4.9 mph 5.4 mph 31 % 0 in
17:37 94.5 °F 59 °F 30 in NE 7.6 mph 7.6 mph 31 % 0 in
17:42 92.3 °F 62.6 °F 30 in NNE 5.6 mph 10.1 mph 36 % 0 in
17:48 91.2 °F 64.4 °F 30 in NW 5.8 mph 11 mph 39 % 0 in
17:53 90.7 °F 62.6 °F 30 in NNE 12.1 mph 12.1 mph 39 % 0 in
17:58 90 °F 62.6 °F 30 in NNE 5.8 mph 12.3 mph 40 % 0 in
18:03 89.4 °F 62.6 °F 30 in North 5.8 mph 12.3 mph 40 % 0 in
18:08 89.2 °F 62.6 °F 30 in North 8.5 mph 16.1 mph 41 % 0 in
18:13 88.9 °F 62.6 °F 30 in North 10.3 mph 16.1 mph 42 % 0 in
18:18 88.9 °F 62.6 °F 30 in ENE 12.5 mph 12.5 mph 41 % 0 in
18:23 88.9 °F 62.6 °F 30 in North 6.3 mph 12.5 mph 42 % 0 in
18:28 88.9 °F 62.6 °F 30 in North 9.8 mph 12.5 mph 40 % 0 in
18:33 88.3 °F 60.8 °F 30 in NNE 12.5 mph 12.8 mph 40 % 0 in
18:38 88.3 °F 62.6 °F 30 in NE 8.1 mph 12.8 mph 41 % 0 in
18:43 88.2 °F 60.8 °F 30 in NE 8.7 mph 12.8 mph 40 % 0 in
18:48 88 °F 60.8 °F 30 in NE 8.9 mph 12.8 mph 40 % 0 in
18:53 87.6 °F 60.8 °F 30 in NNE 11 mph 11 mph 40 % 0 in
18:58 87.4 °F 60.8 °F 30 in NE 7.8 mph 457.8 mph 41 % 0 in
19:03 87.3 °F 60.8 °F 30 in NE 4.9 mph 457.8 mph 41 % 0 in
19:08 87.1 °F 64.4 °F 30 in NNE 8.1 mph 10.5 mph 46 % 0 in
19:13 86.9 °F 64.4 °F 30 in North 6 mph 10.5 mph 47 % 0 in
19:18 86.9 °F 64.4 °F 30 in North 8.7 mph 10.5 mph 47 % 0 in
19:23 86.9 °F 64.4 °F 30 in North 9.6 mph 10.7 mph 47 % 0 in
19:29 86.5 °F 64.4 °F 30 in North 10.3 mph 10.7 mph 47 % 0 in
19:31 86.2 °F 64.4 °F 30 in NNE 6.3 mph 10.3 mph 47 % 0 in
19:36 85.8 °F 64.4 °F 30 in North 9.8 mph 10.7 mph 48 % 0 in
19:41 85.6 °F 64.4 °F 30 in NE 6 mph 11 mph 48 % 0 in
19:46 85.3 °F 62.6 °F 30 in NNE 8.5 mph 11 mph 47 % 0 in
19:51 84.9 °F 62.6 °F 30 in North 6.3 mph 10.7 mph 47 % 0 in
19:56 84.7 °F 62.6 °F 30 in North 7.6 mph 10.5 mph 48 % 0 in
20:01 84.4 °F 62.6 °F 30 in North 4.9 mph 10.7 mph 47 % 0 in
20:06 84.2 °F 62.6 °F 30 in NE 8.1 mph 10.5 mph 47 % 0 in
20:11 83.8 °F 62.6 °F 30 in NNE 10.1 mph 10.1 mph 47 % 0 in
20:16 83.5 °F 62.6 °F 30 in NNE 7.2 mph 10.1 mph 47 % 0 in
20:21 83.1 °F 60.8 °F 30 in NE 7.8 mph 12.1 mph 46 % 0 in
20:27 82.8 °F 60.8 °F 30 in NE 7.6 mph 12.1 mph 47 % 0 in
20:31 82.4 °F 60.8 °F 30 in NE 7.6 mph 8.5 mph 48 % 0 in
20:37 82.2 °F 62.6 °F 30 in NE 8.9 mph 8.9 mph 49 % 0 in
20:42 81.7 °F 62.6 °F 30 in ENE 7.6 mph 8.9 mph 50 % 0 in
20:47 81.3 °F 62.6 °F 30 in NE 5.8 mph 8.7 mph 51 % 0 in
20:48 81.3 °F 62.6 °F 30 in North 6 mph 8.5 mph 51 % 0 in
20:53 81 °F 62.6 °F 30 in NE 6.5 mph 8.1 mph 51 % 0 in
20:58 80.8 °F 62.6 °F 30 in NE 5.6 mph 9.2 mph 52 % 0 in
21:03 80.6 °F 62.6 °F 30 in NE 4.3 mph 9.2 mph 53 % 0 in
21:08 80.4 °F 62.6 °F 30 in NE 5.8 mph 7.8 mph 54 % 0 in
21:13 80.2 °F 62.6 °F 30 in NE 7.4 mph 8.7 mph 56 % 0 in
21:18 80.1 °F 62.6 °F 30 in NE 7.2 mph 8.7 mph 56 % 0 in
21:23 79.9 °F 64.4 °F 30 in NE 5.6 mph 8.5 mph 57 % 0 in
21:29 79.2 °F 64.4 °F 30 in NE 6.3 mph 8.5 mph 59 % 0 in
21:34 78.8 °F 64.4 °F 30 in NE 4.3 mph 7.6 mph 59 % 0 in
21:39 78.6 °F 64.4 °F 30 in NE 5.6 mph 7.6 mph 60 % 0 in
21:44 78.1 °F 64.4 °F 30 in Calm   6.3 mph 60 % 0 in
21:49 77.5 °F 62.6 °F 30 in North 2.9 mph 5.8 mph 61 % 0 in
21:54 77.2 °F 62.6 °F 30 in NE 2.7 mph 5.4 mph 61 % 0 in
21:59 76.6 °F 62.6 °F 30 in NE 2.7 mph 5.4 mph 63 % 0 in
22:04 76.3 °F 64.4 °F 30 in NE 3.6 mph 5.4 mph 64 % 0 in
22:09 75.9 °F 62.6 °F 30 in NE 4.9 mph 5.6 mph 64 % 0 in
22:14 75.6 °F 64.4 °F 30 in NE 5.4 mph 5.6 mph 66 % 0 in
22:20 75.2 °F 64.4 °F 30 in NE 3.8 mph 6.3 mph 67 % 0 in
22:25 75 °F 64.4 °F 30 in NE 4.9 mph 6.3 mph 67 % 0 in
22:30 74.7 °F 62.6 °F 30 in North 0.9 mph 5.8 mph 67 % 0 in
22:35 74.5 °F 64.4 °F 30 in Calm   5.8 mph 68 % 0 in
22:40 74.3 °F 64.4 °F 30 in NE 4 mph 5.6 mph 68 % 0 in
22:45 74.3 °F 64.4 °F 30 in NE 5.4 mph 6.5 mph 69 % 0 in
22:50 74.5 °F 64.4 °F 30 in East 2.9 mph 6.5 mph 68 % 0 in
22:55 74.5 °F 64.4 °F 30 in ENE 4.3 mph 6.3 mph 68 % 0 in
23:00 74.5 °F 64.4 °F 30 in NE 3.4 mph 6.3 mph 68 % 0 in
23:05 74.3 °F 64.4 °F 30.1 in NNE 4 mph 5.8 mph 68 % 0 in
23:10 74.1 °F 62.6 °F 30.1 in NNE 4.7 mph 5.8 mph 68 % 0 in
23:15 73.8 °F 62.6 °F 30.1 in NE 4.7 mph 6.3 mph 69 % 0 in
23:20 73.8 °F 62.6 °F 30 in NE 6.3 mph 7.2 mph 69 % 0 in
23:25 73.8 °F 62.6 °F 30 in NE 1.3 mph 7.2 mph 69 % 0 in
23:30 73.6 °F 62.6 °F 30 in North 4.3 mph 6 mph 69 % 0 in
23:35 73.2 °F 62.6 °F 30 in Calm   5.8 mph 69 % 0 in
23:40 73 °F 62.6 °F 30 in ENE 2.9 mph 5.8 mph 70 % 0 in
23:46 73 °F 62.6 °F 30 in ENE 4.9 mph 6 mph 70 % 0 in
23:51 73 °F 62.6 °F 30 in ENE 2.2 mph 6 mph 70 % 0 in
23:56 73 °F 62.6 °F 30 in NE 0.9 mph 8.1 mph 70 % 0 in
Le Gheer Warneton
Courtoisie de Weather Underground - 2.25 mb

Mise a jour : 18/12/2017 23:28:11
Généré par Cumulus 1.9.4 (1099)